Regional Weather Roundup
Issued by NWS

Home | Current Version | Previous Version | Graphics & Text | Print | Product List | Glossary On
Versions: 1 2 3 4 5 6 7 8 9 10 11 12 13 14 15 16 17 18 19 20 21 22 23 24 25 26 27 28 29 30 31 32 33 34 35 36 37 38 39 40 41 42 43 44 45 46 47 48 49 50
000
ASUS43 KLSX 262207
RWRMO

WEATHER SUMMARY FOR MISSOURI
NATIONAL WEATHER SERVICE SPRINGFIELD MO
500 PM CDT WED APR 26 2017

NOTE: "FAIR" INDICATES FEW OR NO CLOUDS BELOW 12,000 FEET WITH NO
       SIGNIFICANT WEATHER AND/OR OBSTRUCTIONS TO VISIBILITY.
       CURRENT SKY AND/OR WEATHER CONDITIONS ARE NOT AVAILABLE FOR
       CHILLICOTHE AND FARMINGTON.

MOZ001>031-035>038-043-044-053-054-262300-
...NORTHERN AND WESTERN MISSOURI...

CITY           SKY/WX    TMP DP  RH WIND       PRES   REMARKS
KANSAS CTY INT CLOUDY    50  39  66 N15       29.58F
KANSAS C DTWN  CLOUDY    50  39  66 N8        29.59F
LEE`S SUMMIT   CLOUDY    47  43  86 NW10      29.59F
ST JOSEPH      CLOUDY    50  38  63 N14       29.62R
CHILLICOTHE      N/A     48  43  82 VRB7      29.59S
KIRKSVILLE     LGT RAIN  47  45  93 NW8       29.55F FOG

$$
MOZ066>068-077>081-088>096-101>105-262300-
...SOUTHWEST MISSOURI...

CITY           SKY/WX    TMP DP  RH WIND       PRES   REMARKS
SPRINGFIELD    LGT RAIN  48  47  96 N8        29.52S FOG
JOPLIN         CLOUDY    47  44  90 N12       29.60S
BRANSON        LGT RAIN  48  48 100 W7        29.53S VSB 1

$$
MOZ032>034-039>042-045>050-055>058-069>072-262300-
...CENTRAL MISSOURI...

CITY           SKY/WX    TMP DP  RH WIND       PRES   REMARKS
COLUMBIA       CLOUDY    49  48  97 NW13      29.52R
JEFFERSON CITY LGT RAIN  51  48  89 NW7       29.52S FOG
ROLLA          LGT RAIN  50  50 100 W12       29.48S VSB 1/4
SEDALIA        LGT RAIN  47  47 100 NW15      29.55R
WHITEMAN AFB   RAIN      45  45 100 N10       29.53F FOG
OSAGE BEACH    LGT RAIN  48  47  96 VRB7      29.49F FOG

$$
MOZ051-052-059>065-262300-
...EAST CENTRAL MISSOURI...

CITY           SKY/WX    TMP DP  RH WIND       PRES   REMARKS
ST LOUIS INTL  RAIN      64  59  83 SE8       29.47F
SPIRIT OF STL  TSTM      61  61 100 VRB6      29.45F FOG
ST CHARLES     RAIN      62  61  96 E9        29.45F

$$
MOZ072>076-082>087-097>100-106>115-262300-
...SOUTH CENTRAL AND SOUTHEAST MISSOURI...

CITY           SKY/WX    TMP DP  RH WIND       PRES   REMARKS
CAPE GIRARDEAU TSTM      60  59  96 NE6       29.52F VSB 1/2
FARMINGTON     LGT RAIN  60  59  96 SE13      29.50R
POPLAR BLUFF   HVY RAIN  60  60 100 SE6       29.50F VSB 1
WEST PLAINS    LGT RAIN  57  56  96 CALM      29.48F

$$




USA.gov is the U.S. government's official web portal to all federal, state and local government web resources and services.